Back to catalog

STARLINK-37539

AliveCommunicationsSSO
NORAD 68845·PAYLOAD·🇺🇸 United States

Launched Apr 26, 2026 from Vandenberg Space Force Base

Loading…

Next Passes (next 24 hours)

TLE

FreshSource: CelesTrak SupGP

Epoch: Sep 14, 2026, 15:02 UTC

1 68845C 26094G   26257.62687500 -.00053168  00000+0 -16505-2 0  2578
2 68845  97.2838 270.8038 0001663  95.7319 337.4759 15.33465616    17

Track STARLINK-37539 in real time with AllMySat

Download on the App Store